Location: Unspecified
(35.6961°N, 0.0000°E)
Time: 22:43:38
(UTC+00:00)

Altair - Pass Details

Date: 25 May 2019
Orbit: 1501 x 1683 km, 47.2° (Epoch: 14 June)

Event Time Altitude Azimuth Distance (km) Brightness Sun altitude
Rises 10:46:11 0° 301° (WNW) 4,910 9.9 68.6°
Reaches altitude 10° 10:49:32 10° 296° (WNW) 3,903 9.5 69.1°
Maximum altitude 10:58:49 46° 228° (SW) 2,068 9.0 70.5°
Drops below altitude 10° 11:07:46 10° 158° (SSE) 3,758 10.0 71.7°
Sets 11:10:57 0° 152° (SSE) 4,715 10.3 72.1°
